�v������,���r���O(���x),�����t���O,���r���O(���x),�����t���O,��1(���x),�����t���O,�������x,�����t���O
11/1/2003 0:00,21.8,1,60.7,1,18.2,1,19.7,1
11/1/2003 0:15,21.7,1,60.9,1,17.9,1,19.7,1
11/1/2003 0:30,21.7,1,60.7,1,18,1,19.7,1
11/1/2003 0:45,21.7,1,60.6,1,18.1,1,19.7,1
11/1/2003 1:00,21.7,1,60.3,1,18.2,1,19.7,1
11/1/2003 1:15,21.6,1,60.3,1,18.3,1,19.7,1
11/1/2003 1:30,21.6,1,60.2,1,18.4,1,19.7,1
11/1/2003 1:45,21.5,1,60.1,1,18.5,1,19.7,1
11/1/2003 2:00,21.5,1,60.1,1,18.6,1,19.7,1
11/1/2003 2:15,21.4,1,60,1,18.7,1,19.7,1
11/1/2003 2:30,21.3,1,60,1,18.8,1,19.7,1
11/1/2003 2:45,21.3,1,59.9,1,18.9,1,19.7,1
11/1/2003 3:00,21.3,1,59.9,1,19,1,19.7,1
11/1/2003 3:15,21.2,1,59.8,1,19,1,19.7,1
11/1/2003 3:30,21.1,1,59.7,1,19.1,1,19.7,1
11/1/2003 3:45,21.1,1,59.5,1,19.2,1,19.7,1
11/1/2003 4:00,21.1,1,59.4,1,19.3,1,19.6,1
11/1/2003 4:15,21,1,59.2,1,19.4,1,19.6,1
11/1/2003 4:30,21,1,59,1,19.4,1,19.6,1
11/1/2003 4:45,20.9,1,58.8,1,19.5,1,19.6,1
11/1/2003 5:00,20.9,1,58.7,1,19.6,1,19.6,1
11/1/2003 5:15,20.8,1,58.5,1,19.6,1,19.5,1
11/1/2003 5:30,20.8,1,58.4,1,19.7,1,19.5,1
11/1/2003 5:45,20.7,1,58.2,1,19.8,1,19.6,1
11/1/2003 6:00,20.7,1,58.2,1,19.8,1,19.6,1
11/1/2003 6:15,20.6,1,58.2,1,19.9,1,19.6,1
11/1/2003 6:30,20.6,1,58,1,19.9,1,19.5,1
11/1/2003 6:45,20.6,1,58,1,20,1,19.5,1
11/1/2003 7:00,20.5,1,58.1,1,20.1,1,19.5,1
11/1/2003 7:15,20.5,1,58.1,1,20.1,1,19.5,1
11/1/2003 7:30,20.5,1,58.1,1,20.2,1,19.5,1
11/1/2003 7:45,20.4,1,58.6,1,20.3,1,19.4,1
11/1/2003 8:00,20.4,1,59.5,1,18,1,19.4,1
11/1/2003 8:15,20.5,1,60.6,1,18.1,1,19.3,1
11/1/2003 8:30,20.4,1,60.6,1,18.2,1,19.2,1
11/1/2003 8:45,20.5,1,61,1,18.3,1,19.2,1
11/1/2003 9:00,20.5,1,61.1,1,18.4,1,19.3,1
11/1/2003 9:15,20.4,1,60.3,1,18.5,1,19.4,1
11/1/2003 9:30,19.7,1,63.7,1,18.6,1,19.4,1
11/1/2003 9:45,19.5,1,64.3,1,18.7,1,19.5,1
11/1/2003 10:00,19.6,1,64.4,1,18.8,1,19.5,1
11/1/2003 10:15,19.8,1,63.6,1,18.9,1,19.5,1
11/1/2003 10:30,19.9,1,63.3,1,19,1,19.6,1
11/1/2003 10:45,19.9,1,63.2,1,19.1,1,19.7,1
11/1/2003 11:00,20,1,63.3,1,19.1,1,19.7,1
11/1/2003 11:15,20.1,1,63.5,1,17.6,1,19.7,1
11/1/2003 11:30,20.2,1,63.3,1,17.3,1,19.8,1
11/1/2003 11:45,20.2,1,63.4,1,17.4,1,19.9,1
11/1/2003 12:00,20.2,1,63.2,1,17.6,1,19.9,1
11/1/2003 12:15,20.3,1,62.9,1,17.7,1,20,1
11/1/2003 12:30,20.3,1,63.4,1,17.8,1,20.1,1
11/1/2003 12:45,20.4,1,63.1,1,17.9,1,20.1,1
11/1/2003 13:00,20.4,1,63.3,1,18,1,20.2,1
11/1/2003 13:15,20.4,1,63.2,1,18.1,1,20.2,1
11/1/2003 13:30,20.5,1,63.2,1,18.2,1,20.3,1
11/1/2003 13:45,20.5,1,63.9,1,18.3,1,20.3,1
11/1/2003 14:00,20.6,1,63.9,1,18.4,1,20.3,1
11/1/2003 14:15,20.6,1,64.3,1,18.5,1,20.3,1
11/1/2003 14:30,20.6,1,64.4,1,18.6,1,20.3,1
11/1/2003 14:45,20.7,1,64.3,1,18.7,1,20.3,1
11/1/2003 15:00,20.7,1,64,1,18.8,1,20.3,1
11/1/2003 15:15,20.7,1,63.8,1,18.9,1,20.3,1
11/1/2003 15:30,20.7,1,63.4,1,19,1,20.3,1
11/1/2003 15:45,20.7,1,63.6,1,19.1,1,20.3,1
11/1/2003 16:00,20.7,1,63.8,1,19.2,1,20.3,1
11/1/2003 16:15,20.7,1,63.6,1,19.3,1,20.2,1
11/1/2003 16:30,20.7,1,63.7,1,19.4,1,20.2,1
11/1/2003 16:45,20.7,1,63.6,1,19.4,1,20.2,1
11/1/2003 17:00,20.7,1,63.6,1,19.5,1,20.2,1
11/1/2003 17:15,20.7,1,63.6,1,19.6,1,20.2,1
11/1/2003 17:30,20.7,1,63.5,1,19.7,1,20.2,1
11/1/2003 17:45,20.8,1,63.4,1,19.8,1,20.2,1
11/1/2003 18:00,20.8,1,63.1,1,19.8,1,20.2,1
11/1/2003 18:15,20.8,1,64,1,18,1,20.1,1
11/1/2003 18:30,20.8,1,64.6,1,18.1,1,20.1,1
11/1/2003 18:45,20.8,1,65.1,1,18.2,1,20,1
11/1/2003 19:00,20.8,1,65.2,1,18.3,1,20,1
11/1/2003 19:15,20.9,1,65.6,1,18.4,1,20,1
11/1/2003 19:30,20.9,1,66.1,1,18.5,1,19.9,1
11/1/2003 19:45,20.9,1,67.5,1,18.6,1,19.9,1
11/1/2003 20:00,21,1,66.7,1,18.7,1,19.9,1
11/1/2003 20:15,21,1,66.9,1,18.8,1,19.9,1
11/1/2003 20:30,21.1,1,66.8,1,18.9,1,19.9,1
11/1/2003 20:45,21.1,1,66.6,1,19,1,19.9,1
11/1/2003 21:00,21.1,1,66.3,1,18,1,19.9,1
11/1/2003 21:15,21.1,1,66.1,1,18.2,1,19.9,1
11/1/2003 21:30,21.1,1,66,1,18.3,1,19.9,1
11/1/2003 21:45,21.1,1,66.1,1,18.4,1,19.8,1
11/1/2003 22:00,21.1,1,66.1,1,18.5,1,19.8,1
11/1/2003 22:15,21.1,1,66.1,1,17.9,1,19.8,1
11/1/2003 22:30,21.1,1,66.2,1,18,1,19.8,1
11/1/2003 22:45,21.1,1,66.5,1,18.2,1,19.9,1
11/1/2003 23:00,21.1,1,66.5,1,18.3,1,19.9,1
11/1/2003 23:15,21.1,1,66.6,1,18.4,1,19.9,1
11/1/2003 23:30,21.1,1,66.5,1,18.5,1,19.9,1
11/1/2003 23:45,21.1,1,66.6,1,18.6,1,19.9,1
11/2/2003 0:00,21.2,1,66.1,1,17.7,1,19.9,1
11/2/2003 0:15,21.2,1,66.3,1,17.8,1,19.8,1
11/2/2003 0:30,21.2,1,66.7,1,17.9,1,19.8,1
11/2/2003 0:45,21.3,1,67.5,1,18,1,19.7,1
11/2/2003 1:00,21.3,1,66.7,1,18.2,1,19.7,1
11/2/2003 1:15,21.3,1,67.6,1,18.3,1,19.7,1
11/2/2003 1:30,21.3,1,67.4,1,18.4,1,19.7,1
11/2/2003 1:45,21.3,1,67.5,1,18.5,1,19.7,1
11/2/2003 2:00,21.2,1,67.4,1,18.6,1,19.7,1
11/2/2003 2:15,21.2,1,67.6,1,18.7,1,19.7,1
11/2/2003 2:30,21.2,1,67.5,1,18.8,1,19.7,1
11/2/2003 2:45,21.1,1,67.5,1,18.8,1,19.7,1
11/2/2003 3:00,21.1,1,67.4,1,18.9,1,19.8,1
11/2/2003 3:15,21,1,67.4,1,19,1,19.8,1
11/2/2003 3:30,21,1,67.3,1,19.1,1,19.7,1
11/2/2003 3:45,21,1,67.2,1,19.2,1,19.7,1
11/2/2003 4:00,20.9,1,67.1,1,19.3,1,19.7,1
11/2/2003 4:15,20.9,1,67,1,19.3,1,19.7,1
11/2/2003 4:30,20.9,1,67.1,1,19.4,1,19.7,1
11/2/2003 4:45,20.8,1,66.8,1,19.5,1,19.7,1
11/2/2003 5:00,20.8,1,66.7,1,19.5,1,19.7,1
11/2/2003 5:15,20.7,1,66.5,1,19.6,1,19.7,1
11/2/2003 5:30,20.7,1,66.3,1,19.7,1,19.6,1
11/2/2003 5:45,20.7,1,66.1,1,19.8,1,19.6,1
11/2/2003 6:00,20.6,1,65.9,1,19.8,1,19.5,1
11/2/2003 6:15,20.6,1,65.9,1,19.9,1,19.5,1
11/2/2003 6:30,20.5,1,65.7,1,19.9,1,19.5,1
11/2/2003 6:45,20.5,1,65.6,1,20,1,19.4,1
11/2/2003 7:00,20.5,1,65.6,1,20.1,1,19.4,1
11/2/2003 7:15,20.4,1,65.5,1,20.2,1,19.4,1
11/2/2003 7:30,20.4,1,65.4,1,17.9,1,19.4,1
11/2/2003 7:45,20.4,1,65.5,1,17.5,1,19.4,1
11/2/2003 8:00,20.4,1,66.1,1,17.3,1,19.3,1
11/2/2003 8:15,20.5,1,66.5,1,17.5,1,19.3,1
11/2/2003 8:30,20.5,1,66.3,1,17.6,1,19.4,1
11/2/2003 8:45,20.5,1,66,1,17.7,1,19.4,1
11/2/2003 9:00,20.5,1,65.7,1,17.8,1,19.4,1
11/2/2003 9:15,20.5,1,65.7,1,17.9,1,19.5,1
11/2/2003 9:30,20.6,1,65.6,1,18,1,19.6,1
11/2/2003 9:45,20.6,1,65.4,1,18.2,1,19.6,1
11/2/2003 10:00,20.6,1,65.2,1,18.3,1,19.7,1
11/2/2003 10:15,20.7,1,65.1,1,18.4,1,19.8,1
11/2/2003 10:30,20.8,1,64.9,1,18.5,1,19.9,1
11/2/2003 10:45,20.9,1,64.8,1,18.6,1,20.3,1
11/2/2003 11:00,21,1,64.6,1,18.7,1,20.8,1
11/2/2003 11:15,21.1,1,64.6,1,18.8,1,21.2,1
11/2/2003 11:30,21.2,1,64.6,1,18.8,1,21.5,1
11/2/2003 11:45,21.3,1,64.6,1,18.9,1,21.7,1
11/2/2003 12:00,21.4,1,64.6,1,19,1,21.9,1
11/2/2003 12:15,21.5,1,64.3,1,19.1,1,22,1
11/2/2003 12:30,21.6,1,63.9,1,19.2,1,22,1
11/2/2003 12:45,21.7,1,63.8,1,19.3,1,22.1,1
11/2/2003 13:00,21.9,1,63.5,1,19.4,1,22.1,1
11/2/2003 13:15,22,1,63.3,1,19.5,1,22.2,1
11/2/2003 13:30,22.1,1,63,1,19.5,1,22.3,1
11/2/2003 13:45,22.2,1,62.8,1,19.6,1,22.5,1
11/2/2003 14:00,22.3,1,62.7,1,19.7,1,22.6,1
11/2/2003 14:15,22.4,1,62.7,1,19.8,1,22.7,1
11/2/2003 14:30,22.4,1,62.7,1,19.9,1,22.8,1
11/2/2003 14:45,22.5,1,62.6,1,20,1,22.9,1
11/2/2003 15:00,22.6,1,62.6,1,20.1,1,22.9,1
11/2/2003 15:15,22.6,1,62.6,1,20.2,1,23,1
11/2/2003 15:30,22.7,1,62.5,1,20.2,1,23.1,1
11/2/2003 15:45,22.7,1,62.6,1,20.3,1,23.1,1
11/2/2003 16:00,22.7,1,62.5,1,20.4,1,23.2,1
11/2/2003 16:15,22.8,1,62.5,1,20.5,1,23.2,1
11/2/2003 16:30,22.8,1,62.6,1,20.6,1,23.2,1
11/2/2003 16:45,22.8,1,62.7,1,20.7,1,23.1,1
11/2/2003 17:00,22.8,1,62.8,1,20.8,1,23.1,1
11/2/2003 17:15,22.8,1,62.8,1,20.9,1,23,1
11/2/2003 17:30,22.8,1,63,1,21,1,22.9,1
11/2/2003 17:45,22.8,1,63.1,1,21.1,1,22.8,1
11/2/2003 18:00,22.8,1,63.3,1,21.1,1,22.7,1
11/2/2003 18:15,22.8,1,63.6,1,21.2,1,22.5,1
11/2/2003 18:30,22.8,1,63.5,1,21.3,1,22.4,1
11/2/2003 18:45,22.7,1,63.7,1,21.4,1,22.3,1
11/2/2003 19:00,22.7,1,64.3,1,21.4,1,22.2,1
11/2/2003 19:15,22.7,1,64.3,1,18.8,1,22.1,1
11/2/2003 19:30,22.7,1,64.2,1,18.9,1,22,1
11/2/2003 19:45,22.7,1,64.1,1,19,1,21.9,1
11/2/2003 20:00,22.7,1,64.3,1,19.1,1,21.7,1
11/2/2003 20:15,22.7,1,64.6,1,19.2,1,21.7,1
11/2/2003 20:30,22.7,1,64.8,1,19.3,1,21.6,1
11/2/2003 20:45,22.7,1,64.9,1,19.4,1,21.5,1
11/2/2003 21:00,22.7,1,64.9,1,19.5,1,21.4,1
11/2/2003 21:15,22.7,1,64.7,1,18.1,1,21.4,1
11/2/2003 21:30,22.7,1,64.9,1,18.2,1,21.3,1
11/2/2003 21:45,22.7,1,64.9,1,18.3,1,21.3,1
11/2/2003 22:00,22.7,1,64.8,1,18.5,1,21.2,1
11/2/2003 22:15,22.7,1,64.7,1,18.6,1,21.1,1
11/2/2003 22:30,22.7,1,64.7,1,17.9,1,21.1,1
11/2/2003 22:45,22.7,1,64.8,1,18,1,21,1
11/2/2003 23:00,22.6,1,65,1,18.1,1,21,1
11/2/2003 23:15,22.6,1,65.1,1,18.3,1,20.9,1
11/2/2003 23:30,22.6,1,65.3,1,17.9,1,20.9,1
11/2/2003 23:45,22.7,1,65.6,1,18,1,20.8,1
11/3/2003 0:00,22.6,1,65.6,1,18.2,1,20.7,1
11/3/2003 0:15,22.6,1,66.4,1,17.5,1,20.7,1
11/3/2003 0:30,22.7,1,67.1,1,17.6,1,20.6,1
11/3/2003 0:45,22.7,1,66.7,1,17.8,1,20.6,1
11/3/2003 1:00,22.6,1,66.4,1,17.9,1,20.7,1
11/3/2003 1:15,22.5,1,66.3,1,18,1,20.6,1
11/3/2003 1:30,22.5,1,66.2,1,18.1,1,20.6,1
11/3/2003 1:45,22.5,1,66.3,1,18.3,1,20.6,1
11/3/2003 2:00,22.4,1,66.3,1,18.4,1,20.6,1
11/3/2003 2:15,22.4,1,66.3,1,18.5,1,20.7,1
11/3/2003 2:30,22.3,1,66.2,1,18.6,1,20.7,1
11/3/2003 2:45,22.3,1,66.2,1,18.7,1,20.7,1
11/3/2003 3:00,22.2,1,66.1,1,18.8,1,20.7,1
11/3/2003 3:15,22.2,1,66.1,1,18.9,1,20.7,1
11/3/2003 3:30,22.2,1,66.1,1,19,1,20.8,1
11/3/2003 3:45,22.1,1,66.1,1,19.1,1,20.8,1
11/3/2003 4:00,22.1,1,66,1,19.2,1,20.8,1
11/3/2003 4:15,22.1,1,66,1,19.3,1,20.8,1
11/3/2003 4:30,22,1,66,1,19.4,1,20.8,1
11/3/2003 4:45,22,1,66.1,1,19.5,1,20.8,1
11/3/2003 5:00,22,1,66.1,1,19.6,1,20.8,1
11/3/2003 5:15,21.9,1,66.1,1,19.7,1,20.8,1
11/3/2003 5:30,21.9,1,66.2,1,19.8,1,20.8,1
11/3/2003 5:45,21.8,1,66.3,1,19.8,1,20.8,1
11/3/2003 6:00,21.8,1,66.2,1,19.9,1,20.8,1
11/3/2003 6:15,21.8,1,66.1,1,20,1,20.8,1
11/3/2003 6:30,21.7,1,66.1,1,20.1,1,20.7,1
11/3/2003 6:45,21.7,1,66,1,20.2,1,20.7,1
11/3/2003 7:00,21.7,1,66.1,1,20.3,1,20.7,1
11/3/2003 7:15,21.7,1,66.1,1,20.4,1,20.7,1
11/3/2003 7:30,21.6,1,66.2,1,20.5,1,20.6,1
11/3/2003 7:45,21.6,1,66.1,1,20.6,1,20.6,1
11/3/2003 8:00,21.6,1,66.6,1,18.2,1,20.6,1
11/3/2003 8:15,21.6,1,67.2,1,18.4,1,20.6,1
11/3/2003 8:30,21.6,1,66.9,1,18.5,1,20.6,1
11/3/2003 8:45,21.6,1,66.7,1,18.6,1,20.7,1
11/3/2003 9:00,21.6,1,66.5,1,18.7,1,20.7,1
11/3/2003 9:15,21.6,1,66.5,1,18.8,1,20.8,1
11/3/2003 9:30,21.6,1,66.4,1,18.9,1,20.9,1
11/3/2003 9:45,21.6,1,66.4,1,19,1,20.9,1
11/3/2003 10:00,21.6,1,66.4,1,19.1,1,20.9,1
11/3/2003 10:15,21.6,1,66.4,1,19.2,1,20.9,1
11/3/2003 10:30,21.6,1,66.6,1,19.3,1,20.9,1
11/3/2003 10:45,21.6,1,66.6,1,19.4,1,20.9,1
11/3/2003 11:00,21.6,1,66.5,1,19.5,1,21.1,1
11/3/2003 11:15,21.6,1,66.6,1,19.6,1,21.2,1
11/3/2003 11:30,21.6,1,66.6,1,19.7,1,21.3,1
11/3/2003 11:45,21.6,1,66.7,1,19.8,1,21.2,1
11/3/2003 12:00,21.6,1,66.5,1,19.9,1,21.1,1
11/3/2003 12:15,21.6,1,66.5,1,19.9,1,21.1,1
11/3/2003 12:30,21.6,1,66.4,1,20,1,21,1
11/3/2003 12:45,21.6,1,66.2,1,20.1,1,21,1
11/3/2003 13:00,21.6,1,66.2,1,20.2,1,21,1
11/3/2003 13:15,21.6,1,66.2,1,20.3,1,21,1
11/3/2003 13:30,21.6,1,66.2,1,20.4,1,21,1
11/3/2003 13:45,21.6,1,66.2,1,20.5,1,20.9,1
11/3/2003 14:00,21.6,1,66.3,1,20.6,1,20.9,1
11/3/2003 14:15,21.6,1,66.3,1,20.7,1,20.9,1
11/3/2003 14:30,21.6,1,66.5,1,20.8,1,20.9,1
11/3/2003 14:45,21.6,1,66.5,1,20.9,1,20.8,1
11/3/2003 15:00,21.6,1,66.7,1,21,1,20.8,1
11/3/2003 15:15,21.6,1,66.7,1,21,1,20.7,1
11/3/2003 15:30,21.6,1,66.9,1,21.1,1,20.7,1
11/3/2003 15:45,21.6,1,67,1,21.2,1,20.7,1
11/3/2003 16:00,21.6,1,67.1,1,21.3,1,20.7,1
11/3/2003 16:15,21.6,1,67.1,1,21.3,1,20.6,1
11/3/2003 16:30,21.6,1,67.2,1,21.4,1,20.6,1
11/3/2003 16:45,21.6,1,67.4,1,21.5,1,20.5,1
11/3/2003 17:00,21.6,1,67.4,1,21.5,1,20.5,1
11/3/2003 17:15,21.6,1,67.5,1,21.6,1,20.5,1
11/3/2003 17:30,21.6,1,67.5,1,21.6,1,20.5,1
11/3/2003 17:45,21.6,1,67.5,1,21.7,1,20.4,1
11/3/2003 18:00,21.6,1,67.5,1,21.8,1,20.4,1
11/3/2003 18:15,21.6,1,67.6,1,21.8,1,20.4,1
11/3/2003 18:30,21.5,1,67.8,1,21.9,1,20.3,1
11/3/2003 18:45,21.5,1,67.8,1,21.9,1,20.3,1
11/3/2003 19:00,21.5,1,67.8,1,22,1,20.3,1
11/3/2003 19:15,21.5,1,67.7,1,19.3,1,20.3,1
11/3/2003 19:30,21.5,1,67.8,1,19.4,1,20.3,1
11/3/2003 19:45,21.5,1,67.9,1,19.5,1,20.3,1
11/3/2003 20:00,21.5,1,68,1,19.6,1,20.2,1
11/3/2003 20:15,21.5,1,68,1,19.7,1,20.2,1
11/3/2003 20:30,21.5,1,68.3,1,19.8,1,20.2,1
11/3/2003 20:45,21.5,1,68.4,1,19.9,1,20.2,1
11/3/2003 21:00,21.5,1,68.2,1,19.9,1,20.1,1
11/3/2003 21:15,21.6,1,69.4,1,20,1,20.1,1
11/3/2003 21:30,21.6,1,69.4,1,20.1,1,20.1,1
11/3/2003 21:45,21.6,1,69.4,1,20.2,1,20.1,1
11/3/2003 22:00,21.7,1,69.3,1,20.3,1,20.1,1
11/3/2003 22:15,21.7,1,69.2,1,20.4,1,20.1,1
11/3/2003 22:30,21.8,1,70,1,20.5,1,20.1,1
11/3/2003 22:45,21.8,1,69.4,1,20.6,1,20.1,1
11/3/2003 23:00,21.8,1,69.4,1,20.7,1,20.1,1
11/3/2003 23:15,21.9,1,69.8,1,18.9,1,20.1,1
11/3/2003 23:30,21.9,1,69.8,1,19,1,20.1,1
11/3/2003 23:45,21.9,1,69.8,1,19.1,1,20.1,1
11/4/2003 0:00,21.9,1,69.9,1,19.2,1,20.2,1
11/4/2003 0:15,21.9,1,70,1,19.3,1,20.3,1
11/4/2003 0:30,22,1,70.3,1,19.4,1,20.3,1
11/4/2003 0:45,21.9,1,69.9,1,19.5,1,20.4,1
11/4/2003 1:00,21.9,1,70,1,19.6,1,20.4,1
11/4/2003 1:15,21.9,1,69.9,1,19.6,1,20.5,1
11/4/2003 1:30,21.9,1,69.9,1,19.7,1,20.5,1
11/4/2003 1:45,21.8,1,69.8,1,19.8,1,20.6,1
11/4/2003 2:00,21.8,1,69.8,1,19.9,1,20.6,1
11/4/2003 2:15,21.8,1,69.9,1,19.9,1,20.7,1
11/4/2003 2:30,21.8,1,69.8,1,20,1,20.7,1
11/4/2003 2:45,21.8,1,70,1,20.1,1,20.7,1
11/4/2003 3:00,21.7,1,69.9,1,20.2,1,20.8,1
11/4/2003 3:15,21.7,1,70,1,20.3,1,20.9,1
11/4/2003 3:30,21.7,1,70,1,20.4,1,20.9,1
11/4/2003 3:45,21.7,1,70,1,20.5,1,20.9,1
11/4/2003 4:00,21.7,1,69.9,1,20.6,1,20.9,1
11/4/2003 4:15,21.7,1,70,1,20.6,1,21,1
11/4/2003 4:30,21.7,1,70,1,20.7,1,21,1
11/4/2003 4:45,21.7,1,70.2,1,20.8,1,21,1
11/4/2003 5:00,21.6,1,70.1,1,20.8,1,21,1
11/4/2003 5:15,21.6,1,70,1,20.9,1,21,1
11/4/2003 5:30,21.6,1,70,1,21,1,21,1
11/4/2003 5:45,21.6,1,69.8,1,21.1,1,21,1
11/4/2003 6:00,21.6,1,69.8,1,21.1,1,20.9,1
11/4/2003 6:15,21.5,1,69.9,1,21.2,1,20.9,1
11/4/2003 6:30,21.5,1,69.6,1,21.3,1,20.8,1
11/4/2003 6:45,21.5,1,69.3,1,21.3,1,20.8,1
11/4/2003 7:00,21.5,1,69,1,21.4,1,20.8,1
11/4/2003 7:15,21.5,1,68.7,1,21.4,1,20.9,1
11/4/2003 7:30,21.5,1,68.6,1,21.5,1,21,1
11/4/2003 7:45,21.5,1,68.4,1,21.6,1,21,1
11/4/2003 8:00,21.5,1,68.2,1,21.6,1,21.1,1
11/4/2003 8:15,21.5,1,68.2,1,21.7,1,21.1,1
11/4/2003 8:30,21.5,1,68.1,1,21.7,1,21.1,1
11/4/2003 8:45,21.5,1,68.6,1,21.8,1,21.2,1
11/4/2003 9:00,21.6,1,69.9,1,18.4,1,21.3,1
11/4/2003 9:15,21.7,1,70.1,1,18.5,1,21.4,1
11/4/2003 9:30,21.8,1,70.2,1,17.9,1,21.5,1
11/4/2003 9:45,21.9,1,71.3,1,18,1,21.5,1
11/4/2003 10:00,21.9,1,70,1,18.2,1,21.6,1
11/4/2003 10:15,22,1,69.2,1,18,1,21.6,1
11/4/2003 10:30,22.1,1,68.7,1,18.1,1,21.6,1
11/4/2003 10:45,22.2,1,68.3,1,18.2,1,21.8,1
11/4/2003 11:00,22.3,1,68.5,1,17.6,1,22,1
11/4/2003 11:15,22.3,1,68,1,17.7,1,22.3,1
11/4/2003 11:30,22.3,1,67.8,1,17.9,1,22.5,1
11/4/2003 11:45,22.4,1,67.5,1,18,1,22.6,1
11/4/2003 12:00,22.4,1,67.2,1,18.1,1,22.7,1
11/4/2003 12:15,22.5,1,67,1,18.3,1,22.7,1
11/4/2003 12:30,22.5,1,66.8,1,18.4,1,22.7,1
11/4/2003 12:45,22.6,1,66.6,1,18.5,1,22.7,1
11/4/2003 13:00,22.7,1,66.4,1,18.6,1,22.7,1
11/4/2003 13:15,22.7,1,66,1,18.7,1,22.7,1
11/4/2003 13:30,22.7,1,65.9,1,18.8,1,22.8,1
11/4/2003 13:45,22.8,1,65.8,1,18.9,1,22.8,1
11/4/2003 14:00,22.8,1,65.7,1,19.1,1,22.8,1
11/4/2003 14:15,22.8,1,65.7,1,19.2,1,22.8,1
11/4/2003 14:30,22.8,1,65.6,1,19.3,1,22.8,1
11/4/2003 14:45,22.8,1,65.6,1,19.4,1,22.7,1
11/4/2003 15:00,22.8,1,65.5,1,19.5,1,22.7,1
11/4/2003 15:15,22.9,1,65.4,1,19.6,1,22.6,1
11/4/2003 15:30,22.9,1,65.3,1,19.7,1,22.6,1
11/4/2003 15:45,22.8,1,65.2,1,19.8,1,22.5,1
11/4/2003 16:00,22.9,1,65.2,1,19.9,1,22.4,1
11/4/2003 16:15,22.9,1,65.1,1,20,1,22.3,1
11/4/2003 16:30,22.8,1,65.1,1,20.1,1,22.2,1
11/4/2003 16:45,22.8,1,64.8,1,20.2,1,22.1,1
11/4/2003 17:00,22.8,1,64.8,1,18.6,1,22,1
11/4/2003 17:15,22.8,1,65,1,18.7,1,21.9,1
11/4/2003 17:30,22.8,1,61.2,1,18.9,1,21.7,1
11/4/2003 17:45,21.7,1,51.8,1,19,1,21.6,1
11/4/2003 18:00,21.8,1,53.4,1,19.1,1,21.4,1
11/4/2003 18:15,22,1,57.4,1,19.2,1,21.2,1
11/4/2003 18:30,22.1,1,58.8,1,18.2,1,21.1,1
11/4/2003 18:45,22.1,1,59.5,1,18.3,1,20.9,1
11/4/2003 19:00,22.1,1,59.8,1,18.4,1,20.8,1
11/4/2003 19:15,22.2,1,60.7,1,18.5,1,20.7,1
11/4/2003 19:30,22.2,1,61.1,1,18.6,1,20.6,1
11/4/2003 19:45,22.1,1,61.2,1,18.8,1,20.5,1
11/4/2003 20:00,22.1,1,60.8,1,18.9,1,20.3,1
11/4/2003 20:15,22.1,1,59.9,1,19,1,20.2,1
11/4/2003 20:30,22.1,1,60.4,1,19.1,1,20.1,1
11/4/2003 20:45,22.1,1,59.7,1,18.2,1,20.1,1
11/4/2003 21:00,22,1,60.1,1,18.3,1,20,1
11/4/2003 21:15,22,1,59.9,1,18.4,1,19.9,1
11/4/2003 21:30,21.9,1,59.9,1,18.5,1,19.8,1
11/4/2003 21:45,21.9,1,60,1,18.6,1,19.8,1
11/4/2003 22:00,21.8,1,60.1,1,18.7,1,19.7,1
11/4/2003 22:15,21.9,1,61.5,1,18.8,1,19.7,1
11/4/2003 22:30,21.9,1,61.2,1,18.9,1,19.6,1
11/4/2003 22:45,21.9,1,61.3,1,19,1,19.6,1
11/4/2003 23:00,21.9,1,61.3,1,19.1,1,19.6,1
11/4/2003 23:15,21.9,1,60.7,1,19.2,1,19.7,1
11/4/2003 23:30,21.9,1,60.3,1,19.3,1,19.7,1
11/4/2003 23:45,21.8,1,60.9,1,19.4,1,19.7,1
11/5/2003 0:00,21.8,1,61.4,1,19.5,1,19.7,1
11/5/2003 0:15,21.7,1,62,1,19.6,1,19.7,1
11/5/2003 0:30,21.7,1,62.4,1,19.6,1,19.7,1
11/5/2003 0:45,21.6,1,63,1,19.7,1,19.8,1
11/5/2003 1:00,21.6,1,63.4,1,19.8,1,19.8,1
11/5/2003 1:15,21.5,1,63.4,1,19.9,1,19.8,1
11/5/2003 1:30,21.5,1,63.3,1,19.9,1,19.8,1
11/5/2003 1:45,21.4,1,63.5,1,20,1,19.8,1
11/5/2003 2:00,21.3,1,63.7,1,20.1,1,19.8,1
11/5/2003 2:15,21.3,1,63.5,1,20.2,1,19.8,1
11/5/2003 2:30,21.2,1,63.8,1,20.3,1,19.8,1
11/5/2003 2:45,21.2,1,63.5,1,20.3,1,19.8,1
11/5/2003 3:00,21.1,1,63.5,1,20.4,1,19.8,1
11/5/2003 3:15,21.1,1,63.7,1,20.5,1,19.8,1
11/5/2003 3:30,21,1,63.5,1,20.5,1,19.8,1
11/5/2003 3:45,21,1,63.6,1,20.6,1,19.8,1
11/5/2003 4:00,20.9,1,63.5,1,20.7,1,19.8,1
11/5/2003 4:15,20.9,1,63.7,1,20.7,1,19.8,1
11/5/2003 4:30,20.8,1,63.7,1,20.8,1,19.7,1
11/5/2003 4:45,20.8,1,63.8,1,20.8,1,19.7,1
11/5/2003 5:00,20.7,1,63.7,1,20.9,1,19.6,1
11/5/2003 5:15,20.7,1,63.8,1,21,1,19.6,1
11/5/2003 5:30,20.7,1,63.6,1,21,1,19.6,1
11/5/2003 5:45,20.6,1,63.4,1,21.1,1,19.6,1
11/5/2003 6:00,20.6,1,63.5,1,21.1,1,19.5,1
11/5/2003 6:15,20.5,1,63.3,1,21.2,1,19.5,1
11/5/2003 6:30,20.5,1,63.2,1,21.2,1,19.5,1
11/5/2003 6:45,20.4,1,63,1,21.3,1,19.5,1
11/5/2003 7:00,20.4,1,62.8,1,21.3,1,19.5,1
11/5/2003 7:15,20.4,1,62.8,1,21.3,1,19.5,1
11/5/2003 7:30,20.3,1,62.8,1,21.4,1,19.5,1
11/5/2003 7:45,20.3,1,62.7,1,21.4,1,19.5,1
11/5/2003 8:00,20.3,1,62.7,1,21.4,1,19.5,1
11/5/2003 8:15,20.3,1,62.6,1,21.5,1,19.6,1
11/5/2003 8:30,20.3,1,62.5,1,21.5,1,19.6,1
11/5/2003 8:45,20.3,1,63.5,1,21.5,1,19.7,1
11/5/2003 9:00,20.4,1,64.8,1,21.6,1,19.8,1
11/5/2003 9:15,20.5,1,65.4,1,21.6,1,19.9,1
11/5/2003 9:30,20.4,1,62.5,1,21.6,1,19.9,1
11/5/2003 9:45,20.5,1,64,1,21.7,1,19.9,1
11/5/2003 10:00,20.5,1,63.9,1,21.7,1,20.1,1
11/5/2003 10:15,20.6,1,63.9,1,21.7,1,20.3,1
11/5/2003 10:30,20.7,1,64,1,21.8,1,20.4,1
11/5/2003 10:45,20.7,1,64,1,21.8,1,20.5,1
11/5/2003 11:00,20.7,1,63.8,1,21.8,1,20.6,1
11/5/2003 11:15,20.8,1,63.7,1,21.9,1,20.9,1
11/5/2003 11:30,20.9,1,63.5,1,21.9,1,21.2,1
11/5/2003 11:45,21,1,63.4,1,21.9,1,21.5,1
11/5/2003 12:00,21.1,1,63.4,1,22,1,21.6,1
11/5/2003 12:15,21.2,1,63.2,1,22,1,21.7,1
11/5/2003 12:30,21.3,1,63,1,22,1,21.8,1
11/5/2003 12:45,21.4,1,62.9,1,22.1,1,21.9,1
11/5/2003 13:00,21.5,1,62.7,1,22.1,1,21.9,1
11/5/2003 13:15,21.5,1,62.7,1,22.1,1,22,1
11/5/2003 13:30,21.6,1,62.6,1,22.2,1,22,1
11/5/2003 13:45,21.6,1,62.6,1,22.2,1,22,1
11/5/2003 14:00,21.6,1,62.6,1,22.2,1,22,1
11/5/2003 14:15,21.7,1,62.6,1,22.3,1,21.9,1
11/5/2003 14:30,21.7,1,62.6,1,22.3,1,22,1
11/5/2003 14:45,21.7,1,62.6,1,22.3,1,22,1
11/5/2003 15:00,21.7,1,62.6,1,22.4,1,22,1
11/5/2003 15:15,21.8,1,62.6,1,22.4,1,22,1
11/5/2003 15:30,21.8,1,62.7,1,22.4,1,22,1
11/5/2003 15:45,21.8,1,62.7,1,22.5,1,22,1
11/5/2003 16:00,21.8,1,62.8,1,22.5,1,21.9,1
11/5/2003 16:15,21.8,1,62.7,1,22.5,1,21.9,1
11/5/2003 16:30,21.8,1,62.9,1,22.5,1,21.8,1
11/5/2003 16:45,21.8,1,62.9,1,22.6,1,21.8,1
11/5/2003 17:00,21.8,1,63,1,22.6,1,21.7,1
11/5/2003 17:15,21.8,1,63,1,22.6,1,21.7,1
11/5/2003 17:30,21.9,1,63.3,1,18.9,1,21.6,1
11/5/2003 17:45,21.9,1,63.5,1,19,1,21.6,1
11/5/2003 18:00,21.9,1,63.4,1,19.1,1,21.5,1
11/5/2003 18:15,21.9,1,63.3,1,19.2,1,21.5,1
11/5/2003 18:30,21.9,1,63.4,1,19.3,1,21.5,1
11/5/2003 18:45,21.9,1,63.5,1,19.4,1,21.4,1
11/5/2003 19:00,21.9,1,63.8,1,19.5,1,21.4,1
11/5/2003 19:15,22,1,65,1,19.6,1,21.4,1
11/5/2003 19:30,22.1,1,65.6,1,19.7,1,21.3,1
11/5/2003 19:45,22.2,1,65.5,1,19.8,1,21.3,1
11/5/2003 20:00,22.2,1,65.6,1,19.9,1,21.2,1
11/5/2003 20:15,22.3,1,65.4,1,20,1,21.1,1
11/5/2003 20:30,22.2,1,65,1,20.1,1,21.1,1
11/5/2003 20:45,22.3,1,65.6,1,20.2,1,21.1,1
11/5/2003 21:00,22.3,1,65.8,1,20.2,1,21,1
11/5/2003 21:15,22.3,1,65.4,1,18.4,1,20.9,1
11/5/2003 21:30,22.3,1,66.2,1,18.5,1,20.8,1
11/5/2003 21:45,22.3,1,65.6,1,18.6,1,20.7,1
11/5/2003 22:00,22.3,1,65.8,1,18.8,1,20.6,1
11/5/2003 22:15,22.3,1,66.1,1,18.9,1,20.6,1
11/5/2003 22:30,22.3,1,65.7,1,19,1,20.4,1
11/5/2003 22:45,22.3,1,66.2,1,19.1,1,20.3,1
11/5/2003 23:00,22.3,1,66.6,1,19.2,1,20.3,1
11/5/2003 23:15,22.3,1,66.7,1,19.3,1,20.3,1
11/5/2003 23:30,22.2,1,66.5,1,19.4,1,20.4,1
11/5/2003 23:45,22.2,1,66.4,1,19.4,1,20.4,1
11/6/2003 0:00,22.1,1,66.4,1,19.5,1,20.4,1
11/6/2003 0:15,22.1,1,66.4,1,19.6,1,20.4,1
11/6/2003 0:30,22,1,66.4,1,19.7,1,20.5,1
11/6/2003 0:45,22,1,66.5,1,19.8,1,20.5,1
11/6/2003 1:00,21.9,1,66.4,1,19.9,1,20.5,1
11/6/2003 1:15,21.9,1,66.5,1,19.9,1,20.4,1
11/6/2003 1:30,21.9,1,66.4,1,20,1,20.4,1
11/6/2003 1:45,21.8,1,66.4,1,20.1,1,20.4,1
11/6/2003 2:00,21.8,1,66.3,1,20.2,1,20.4,1
11/6/2003 2:15,21.7,1,66.2,1,20.3,1,20.4,1
11/6/2003 2:30,21.7,1,66.2,1,20.3,1,20.4,1
11/6/2003 2:45,21.6,1,66,1,20.4,1,20.4,1
11/6/2003 3:00,21.6,1,66.1,1,20.5,1,20.3,1
11/6/2003 3:15,21.5,1,66.1,1,20.6,1,20.3,1
11/6/2003 3:30,21.5,1,66.1,1,20.6,1,20.2,1
11/6/2003 3:45,21.5,1,66.1,1,20.7,1,20.2,1
11/6/2003 4:00,21.4,1,66.2,1,20.8,1,20.2,1
11/6/2003 4:15,21.4,1,66.2,1,20.8,1,20.2,1
11/6/2003 4:30,21.3,1,66.2,1,20.9,1,20.2,1
11/6/2003 4:45,21.3,1,66.4,1,21,1,20.2,1
11/6/2003 5:00,21.3,1,66.4,1,21,1,20.2,1
11/6/2003 5:15,21.2,1,66.5,1,21.1,1,20.1,1
11/6/2003 5:30,21.2,1,66.5,1,21.1,1,20.2,1
11/6/2003 5:45,21.1,1,66.5,1,21.2,1,20.2,1
11/6/2003 6:00,21.1,1,66.5,1,21.2,1,20.2,1
11/6/2003 6:15,21.1,1,66.5,1,21.3,1,20.2,1
11/6/2003 6:30,21.1,1,66.6,1,21.3,1,20.1,1
11/6/2003 6:45,21,1,66.6,1,21.4,1,20,1
11/6/2003 7:00,21,1,66.8,1,21.4,1,20,1
11/6/2003 7:15,21,1,66.8,1,21.5,1,20,1
11/6/2003 7:30,21,1,67,1,21.5,1,19.9,1
11/6/2003 7:45,21,1,67.2,1,21.5,1,19.9,1
11/6/2003 8:00,21,1,68,1,21.6,1,19.9,1
11/6/2003 8:15,21,1,68.6,1,21.6,1,19.8,1
11/6/2003 8:30,21,1,68.7,1,21.6,1,19.8,1
11/6/2003 8:45,21,1,68.3,1,21.7,1,19.8,1
11/6/2003 9:00,21,1,68.7,1,18.5,1,19.8,1
11/6/2003 9:15,20.2,1,71.4,1,18.6,1,19.8,1
11/6/2003 9:30,20.4,1,70.6,1,17.7,1,19.8,1
11/6/2003 9:45,20.5,1,69.9,1,17.7,1,19.8,1
11/6/2003 10:00,20.6,1,69.2,1,17.9,1,19.8,1
11/6/2003 10:15,20.7,1,69.5,1,18,1,19.9,1
11/6/2003 10:30,20.7,1,69.2,1,17.6,1,19.9,1
11/6/2003 10:45,20.7,1,69.2,1,17.6,1,20,1
11/6/2003 11:00,20.8,1,69.2,1,17.7,1,20,1
11/6/2003 11:15,20.8,1,69.2,1,17.8,1,20.1,1
11/6/2003 11:30,20.8,1,69.2,1,17.9,1,20.1,1
11/6/2003 11:45,20.8,1,69.1,1,18.1,1,20.1,1
11/6/2003 12:00,20.8,1,69.2,1,18.2,1,20.1,1
11/6/2003 12:15,20.8,1,69.1,1,18.3,1,20.3,1
11/6/2003 12:30,20.9,1,69.2,1,18.4,1,20.4,1
11/6/2003 12:45,20.9,1,68.9,1,18.5,1,20.5,1
11/6/2003 13:00,21,1,69,1,18.6,1,20.7,1
11/6/2003 13:15,21,1,69.4,1,18.7,1,20.8,1
11/6/2003 13:30,21.1,1,68.9,1,18.8,1,20.9,1
11/6/2003 13:45,21.2,1,68.7,1,18.9,1,21,1
11/6/2003 14:00,21.3,1,68.6,1,19,1,21.1,1
11/6/2003 14:15,21.4,1,68.3,1,19.1,1,21.3,1
11/6/2003 14:30,21.5,1,68.3,1,19.2,1,21.4,1
11/6/2003 14:45,21.6,1,68.2,1,19.3,1,21.6,1
11/6/2003 15:00,21.7,1,68.1,1,19.4,1,21.8,1
11/6/2003 15:15,21.8,1,68,1,19.5,1,21.9,1
11/6/2003 15:30,21.9,1,67.7,1,19.6,1,22.1,1
11/6/2003 15:45,22,1,67.5,1,19.6,1,22.2,1